Time,TemperatureF,DewpointF,PressureIn,WindDirection,WindDirectionDegrees,WindSpeedMPH,WindSpeedGustMPH,Humidity,HourlyPrecipIn,Conditions,Clouds,dailyrainin,SoftwareType,DateUTC
2013-07-24 00:02:00,64.6,58.6,29.70,SW,225,0.7,3.1,81,0.00,,,0.00,pywws,2013-07-23 23:02:00,
2013-07-24 00:07:00,64.6,58.6,29.70,SW,225,0.7,3.1,81,0.00,,,0.00,pywws,2013-07-23 23:07:00,
2013-07-24 00:12:00,64.4,58.8,29.70,SW,225,0.7,3.1,82,0.00,,,0.00,pywws,2013-07-23 23:12:00,
2013-07-24 00:17:00,64.2,58.6,29.70,SW,225,0.0,0.7,82,0.00,,,0.00,pywws,2013-07-23 23:17:00,
2013-07-24 00:22:00,64.0,58.4,29.70,SE,135,0.0,1.6,82,0.00,,,0.00,pywws,2013-07-23 23:22:00,
2013-07-24 00:27:00,63.9,58.6,29.70,South,180,0.7,2.2,83,0.00,,,0.00,pywws,2013-07-23 23:27:00,
2013-07-24 00:32:00,63.9,58.6,29.70,WNW,292,0.7,3.1,83,0.00,,,0.00,pywws,2013-07-23 23:32:00,
2013-07-24 00:37:00,63.9,58.6,29.70,South,180,0.7,3.1,83,0.00,,,0.00,pywws,2013-07-23 23:37:00,
2013-07-24 00:44:00,63.9,58.6,29.70,West,270,1.6,3.8,83,0.00,,,0.00,pywws,2013-07-23 23:44:00,
2013-07-24 00:49:00,63.5,58.6,29.70,West,270,0.7,2.2,84,0.00,,,0.00,pywws,2013-07-23 23:49:00,
2013-07-24 00:54:00,63.5,58.6,29.70,SW,225,0.7,3.1,84,0.00,,,0.00,pywws,2013-07-23 23:54:00,
2013-07-24 00:59:00,63.3,58.1,29.70,SE,135,0.0,0.0,83,0.00,,,0.00,pywws,2013-07-23 23:59:00,
2013-07-24 01:04:00,63.3,58.1,29.70,SE,135,0.0,0.0,83,0.00,,,0.00,pywws,2013-07-24 00:04:00,
2013-07-24 01:10:00,63.0,58.0,29.70,North,0,0.7,2.2,84,0.00,,,0.00,pywws,2013-07-24 00:10:00,
2013-07-24 01:15:00,63.0,58.0,29.69,NE,45,0.0,1.6,84,0.00,,,0.00,pywws,2013-07-24 00:15:00,
2013-07-24 01:20:00,63.0,58.0,29.70,East,90,0.0,1.6,84,0.00,,,0.00,pywws,2013-07-24 00:20:00,
2013-07-24 01:26:00,63.0,58.0,29.70,East,90,0.0,1.6,84,0.00,,,0.00,pywws,2013-07-24 00:26:00,
2013-07-24 01:27:00,62.8,57.9,29.70,NE,45,0.0,1.6,84,0.00,,,0.00,pywws,2013-07-24 00:27:00,
2013-07-24 01:30:00,62.6,57.7,29.69,SE,135,0.0,1.6,84,0.00,,,0.00,pywws,2013-07-24 00:30:00,
2013-07-24 01:32:00,62.8,57.9,29.69,NW,315,0.0,0.7,84,0.00,,,0.00,pywws,2013-07-24 00:32:00,
2013-07-24 01:33:00,62.6,58.0,29.69,SW,225,0.7,3.8,85,0.00,,,0.00,pywws,2013-07-24 00:33:00,
2013-07-24 01:36:00,62.6,58.0,29.69,SE,135,0.0,2.2,85,0.00,,,0.00,pywws,2013-07-24 00:36:00,
2013-07-24 01:37:00,62.8,57.9,29.70,NE,45,0.0,1.6,84,0.00,,,0.00,pywws,2013-07-24 00:37:00,
2013-07-24 01:39:00,62.4,57.8,29.69,SW,225,0.0,1.6,85,0.00,,,0.00,pywws,2013-07-24 00:39:00,
2013-07-24 01:42:00,62.6,58.0,29.69,SW,225,0.7,3.8,85,0.00,,,0.00,pywws,2013-07-24 00:42:00,
2013-07-24 01:45:00,62.4,57.8,29.69,SW,225,0.0,2.2,85,0.00,,,0.00,pywws,2013-07-24 00:45:00,
2013-07-24 01:48:00,62.2,57.7,29.69,West,270,0.0,0.0,85,0.00,,,0.00,pywws,2013-07-24 00:48:00,
2013-07-24 01:51:00,62.2,57.7,29.68,NW,315,0.0,0.0,85,0.00,,,0.00,pywws,2013-07-24 00:51:00,
2013-07-24 01:54:00,62.1,57.5,29.69,North,0,0.0,1.6,85,0.00,,,0.00,pywws,2013-07-24 00:54:00,
2013-07-24 01:57:00,62.1,57.5,29.69,SW,225,0.0,0.7,85,0.00,,,0.00,pywws,2013-07-24 00:57:00,
2013-07-24 02:00:00,61.9,57.3,29.69,SW,225,0.0,0.7,85,0.00,,,0.00,pywws,2013-07-24 01:00:00,
2013-07-24 02:03:00,61.9,57.6,29.69,East,90,0.0,2.2,86,0.00,,,0.00,pywws,2013-07-24 01:03:00,
2013-07-24 02:06:00,61.9,57.6,29.69,SW,225,0.0,0.7,86,0.00,,,0.00,pywws,2013-07-24 01:06:00,
2013-07-24 02:09:00,61.9,57.6,29.69,SW,225,0.0,0.7,86,0.00,,,0.00,pywws,2013-07-24 01:09:00,
2013-07-24 02:12:00,61.7,57.5,29.69,NNE,22,0.0,0.0,86,0.00,,,0.00,pywws,2013-07-24 01:12:00,
2013-07-24 02:21:00,61.7,57.5,29.69,NW,315,0.0,0.0,86,0.00,,,0.00,pywws,2013-07-24 01:21:00,
2013-07-24 02:23:00,61.7,57.5,29.69,West,270,0.0,1.6,86,0.00,,,0.00,pywws,2013-07-24 01:23:00,
2013-07-24 02:24:00,61.7,57.5,29.68,NW,315,0.0,0.7,86,0.00,,,0.00,pywws,2013-07-24 01:24:00,
2013-07-24 02:27:00,61.7,57.5,29.68,NW,315,0.7,2.2,86,0.00,,,0.00,pywws,2013-07-24 01:27:00,
2013-07-24 02:28:00,61.7,57.5,29.69,NW,315,0.0,0.0,86,0.00,,,0.00,pywws,2013-07-24 01:28:00,
2013-07-24 02:30:00,61.9,57.6,29.69,SW,225,0.0,0.0,86,0.00,,,0.00,pywws,2013-07-24 01:30:00,
2013-07-24 02:33:00,61.7,57.5,29.68,NW,315,0.0,0.7,86,0.00,,,0.00,pywws,2013-07-24 01:33:00,
2013-07-24 02:39:00,61.9,57.6,29.69,SW,225,0.0,0.0,86,0.00,,,0.00,pywws,2013-07-24 01:39:00,
2013-07-24 02:44:00,61.9,57.3,29.69,NE,45,0.0,1.6,85,0.00,,,0.00,pywws,2013-07-24 01:44:00,
2013-07-24 02:49:00,61.9,57.3,29.69,NE,45,0.0,0.7,85,0.00,,,0.00,pywws,2013-07-24 01:49:00,
2013-07-24 02:54:00,61.7,57.1,29.68,South,180,0.0,1.6,85,0.00,,,0.00,pywws,2013-07-24 01:54:00,
2013-07-24 02:57:00,61.5,57.0,29.69,NE,45,0.0,0.7,85,0.00,,,0.00,pywws,2013-07-24 01:57:00,
2013-07-24 02:59:00,61.7,57.1,29.69,North,0,0.0,0.7,85,0.00,,,0.00,pywws,2013-07-24 01:59:00,
2013-07-24 03:00:00,61.5,57.0,29.69,SE,135,0.0,1.6,85,0.00,,,0.00,pywws,2013-07-24 02:00:00,
2013-07-24 03:03:00,61.3,56.8,29.69,SE,135,0.7,2.2,85,0.00,,,0.00,pywws,2013-07-24 02:03:00,
2013-07-24 03:05:00,61.5,57.0,29.69,NE,45,0.0,0.7,85,0.00,,,0.00,pywws,2013-07-24 02:05:00,
2013-07-24 03:06:00,61.3,56.8,29.69,East,90,0.0,0.7,85,0.00,,,0.00,pywws,2013-07-24 02:06:00,
2013-07-24 03:09:00,61.3,56.8,29.69,East,90,0.0,0.7,85,0.00,,,0.00,pywws,2013-07-24 02:09:00,
2013-07-24 03:12:00,61.2,56.9,29.69,NW,315,0.0,0.7,86,0.00,,,0.00,pywws,2013-07-24 02:12:00,
2013-07-24 03:15:00,61.0,56.8,29.69,NE,45,0.0,1.6,86,0.00,,,0.00,pywws,2013-07-24 02:15:00,
2013-07-24 03:18:00,61.0,56.8,29.70,SW,225,0.0,0.0,86,0.00,,,0.00,pywws,2013-07-24 02:18:00,
2013-07-24 03:21:00,60.8,56.6,29.70,NE,45,0.0,0.7,86,0.00,,,0.00,pywws,2013-07-24 02:21:00,
2013-07-24 03:24:00,60.8,56.6,29.69,NW,315,0.0,0.0,86,0.00,,,0.00,pywws,2013-07-24 02:24:00,
2013-07-24 03:27:00,60.6,56.4,29.69,East,90,0.0,0.0,86,0.00,,,0.00,pywws,2013-07-24 02:27:00,
2013-07-24 03:30:00,60.6,56.7,29.69,SW,225,0.7,3.1,87,0.00,,,0.00,pywws,2013-07-24 02:30:00,
2013-07-24 03:33:00,60.4,56.5,29.69,South,180,0.0,1.6,87,0.00,,,0.00,pywws,2013-07-24 02:33:00,
2013-07-24 03:36:00,60.4,56.5,29.69,West,270,0.0,1.6,87,0.00,,,0.00,pywws,2013-07-24 02:36:00,
2013-07-24 03:39:00,60.4,56.5,29.69,NE,45,0.0,0.7,87,0.00,,,0.00,pywws,2013-07-24 02:39:00,
2013-07-24 03:42:00,60.4,56.9,29.69,NW,315,0.7,2.2,88,0.00,,,0.00,pywws,2013-07-24 02:42:00,
2013-07-24 03:45:00,60.4,56.9,29.69,SE,135,0.7,1.6,88,0.00,,,0.00,pywws,2013-07-24 02:45:00,
2013-07-24 03:48:00,60.4,56.9,29.70,West,270,0.0,1.6,88,0.00,,,0.00,pywws,2013-07-24 02:48:00,
2013-07-24 03:51:00,60.3,56.7,29.70,North,0,0.0,0.7,88,0.00,,,0.00,pywws,2013-07-24 02:51:00,
2013-07-24 03:54:00,60.3,56.7,29.70,South,180,0.7,2.2,88,0.00,,,0.00,pywws,2013-07-24 02:54:00,
2013-07-24 03:57:00,60.1,56.5,29.70,SE,135,0.0,0.7,88,0.00,,,0.00,pywws,2013-07-24 02:57:00,
2013-07-24 04:00:00,60.1,56.5,29.70,North,0,0.0,0.7,88,0.00,,,0.00,pywws,2013-07-24 03:00:00,
2013-07-24 04:09:00,60.1,56.5,29.70,North,0,0.0,0.7,88,0.00,,,0.00,pywws,2013-07-24 03:09:00,
2013-07-24 04:14:00,59.9,56.3,29.70,East,90,0.0,0.0,88,0.00,,,0.00,pywws,2013-07-24 03:14:00,
2013-07-24 04:19:00,59.7,56.8,29.70,North,0,0.7,2.2,90,0.00,,,0.00,pywws,2013-07-24 03:19:00,
2013-07-24 04:24:00,59.7,56.8,29.70,East,90,1.6,3.8,90,0.00,,,0.00,pywws,2013-07-24 03:24:00,
2013-07-24 04:29:00,59.5,56.6,29.70,SE,135,0.7,3.1,90,0.00,,,0.00,pywws,2013-07-24 03:29:00,
2013-07-24 04:34:00,59.5,56.6,29.70,North,0,0.0,0.7,90,0.00,,,0.00,pywws,2013-07-24 03:34:00,
2013-07-24 04:39:00,59.5,56.6,29.70,North,0,0.0,0.7,90,0.00,,,0.00,pywws,2013-07-24 03:39:00,
2013-07-24 04:40:00,59.5,56.6,29.70,North,0,0.0,0.7,90,0.00,,,0.00,pywws,2013-07-24 03:40:00,
2013-07-24 04:45:00,59.5,56.6,29.70,North,0,0.0,0.7,90,0.00,,,0.00,pywws,2013-07-24 03:45:00,
2013-07-24 04:50:00,59.4,56.4,29.70,NW,315,0.0,0.0,90,0.00,,,0.00,pywws,2013-07-24 03:50:00,
2013-07-24 04:56:00,59.2,56.6,29.70,East,90,0.0,2.2,91,0.00,,,0.00,pywws,2013-07-24 03:56:00,
2013-07-24 05:01:00,59.2,56.6,29.70,NE,45,0.0,1.6,91,0.00,,,0.00,pywws,2013-07-24 04:01:00,
2013-07-24 05:02:00,59.2,56.6,29.70,NE,45,0.0,2.2,91,0.00,,,0.00,pywws,2013-07-24 04:02:00,
2013-07-24 05:03:00,59.2,56.6,29.70,East,90,0.0,2.2,91,0.00,,,0.00,pywws,2013-07-24 04:03:00,
2013-07-24 05:08:00,59.2,56.6,29.70,South,180,0.0,1.6,91,0.00,,,0.00,pywws,2013-07-24 04:08:00,
2013-07-24 05:13:00,59.0,56.4,29.70,South,180,0.0,3.8,91,0.00,,,0.00,pywws,2013-07-24 04:13:00,
2013-07-24 05:18:00,59.2,56.9,29.71,NW,315,0.0,1.6,92,0.00,,,0.00,pywws,2013-07-24 04:18:00,
2013-07-24 05:23:00,59.2,56.9,29.71,South,180,0.0,1.6,92,0.00,,,0.00,pywws,2013-07-24 04:23:00,
2013-07-24 05:28:00,59.2,56.6,29.71,NW,315,0.0,0.0,91,0.00,,,0.00,pywws,2013-07-24 04:28:00,
2013-07-24 05:33:00,59.2,56.6,29.71,East,90,0.7,2.2,91,0.00,,,0.00,pywws,2013-07-24 04:33:00,
2013-07-24 05:38:00,59.4,56.7,29.71,NE,45,0.7,2.2,91,0.00,,,0.00,pywws,2013-07-24 04:38:00,
2013-07-24 05:44:00,59.4,56.7,29.71,SE,135,0.0,0.7,91,0.00,,,0.00,pywws,2013-07-24 04:44:00,
2013-07-24 05:49:00,59.5,56.9,29.71,East,90,0.0,0.0,91,0.00,,,0.00,pywws,2013-07-24 04:49:00,
2013-07-24 05:54:00,59.7,57.1,29.71,SW,225,0.0,0.7,91,0.00,,,0.00,pywws,2013-07-24 04:54:00,
2013-07-24 05:59:00,60.1,57.4,29.71,West,270,0.0,0.7,91,0.00,,,0.00,pywws,2013-07-24 04:59:00,
2013-07-24 06:04:00,61.3,58.7,29.71,East,90,0.0,0.0,91,0.00,,,0.00,pywws,2013-07-24 05:04:00,
2013-07-24 06:10:00,62.6,59.0,29.71,SE,135,0.0,0.0,88,0.00,,,0.00,pywws,2013-07-24 05:10:00,
2013-07-24 06:15:00,63.1,58.2,29.71,NW,315,0.0,0.7,84,0.00,,,0.00,pywws,2013-07-24 05:15:00,
2013-07-24 06:20:00,62.8,57.5,29.71,NE,45,0.0,0.7,83,0.00,,,0.00,pywws,2013-07-24 05:20:00,
2013-07-24 06:25:00,63.1,57.9,29.71,SW,225,0.0,1.6,83,0.00,,,0.00,pywws,2013-07-24 05:25:00,
2013-07-24 06:30:00,62.8,57.5,29.71,East,90,0.0,0.7,83,0.00,,,0.00,pywws,2013-07-24 05:30:00,
2013-07-24 06:35:00,62.2,57.3,29.71,SE,135,0.0,0.7,84,0.00,,,0.00,pywws,2013-07-24 05:35:00,
2013-07-24 06:40:00,62.1,57.5,29.71,NE,45,0.0,0.7,85,0.00,,,0.00,pywws,2013-07-24 05:40:00,
2013-07-24 06:45:00,62.1,57.5,29.71,NE,45,0.0,0.0,85,0.00,,,0.00,pywws,2013-07-24 05:45:00,
2013-07-24 06:51:00,63.9,59.9,29.71,WSW,248,0.0,0.0,87,0.00,,,0.00,pywws,2013-07-24 05:51:00,
2013-07-24 06:56:00,65.1,60.2,29.71,NNE,22,0.0,0.0,84,0.00,,,0.00,pywws,2013-07-24 05:56:00,
2013-07-24 07:01:00,65.3,59.0,29.71,North,0,0.0,0.0,80,0.00,,,0.00,pywws,2013-07-24 06:01:00,
2013-07-24 07:06:00,64.8,58.1,29.71,SW,225,0.0,1.6,79,0.00,,,0.00,pywws,2013-07-24 06:06:00,
2013-07-24 07:11:00,64.6,58.3,29.71,SE,135,0.0,0.0,80,0.00,,,0.00,pywws,2013-07-24 06:11:00,
2013-07-24 07:16:00,65.1,58.8,29.71,West,270,0.0,1.6,80,0.00,,,0.00,pywws,2013-07-24 06:16:00,
2013-07-24 07:21:00,66.7,60.7,29.71,NW,315,0.0,0.0,81,0.00,,,0.00,pywws,2013-07-24 06:21:00,
2013-07-24 07:27:00,67.5,59.3,29.71,NW,315,0.7,2.2,75,0.00,,,0.00,pywws,2013-07-24 06:27:00,
2013-07-24 07:32:00,66.6,58.4,29.71,NW,315,0.0,1.6,75,0.00,,,0.00,pywws,2013-07-24 06:32:00,
2013-07-24 07:37:00,66.0,59.0,29.71,South,180,0.0,1.6,78,0.00,,,0.00,pywws,2013-07-24 06:37:00,
2013-07-24 07:42:00,66.0,58.6,29.71,South,180,0.0,1.6,77,0.00,,,0.00,pywws,2013-07-24 06:42:00,
2013-07-24 07:47:00,66.2,59.1,29.71,South,180,0.0,0.7,78,0.00,,,0.00,pywws,2013-07-24 06:47:00,
2013-07-24 07:52:00,66.9,59.5,29.72,West,270,0.0,0.0,77,0.00,,,0.00,pywws,2013-07-24 06:52:00,
2013-07-24 07:57:00,67.1,59.3,29.72,NW,315,0.0,0.0,76,0.00,,,0.00,pywws,2013-07-24 06:57:00,
2013-07-24 08:02:00,66.6,58.8,29.71,South,180,0.0,0.0,76,0.00,,,0.00,pywws,2013-07-24 07:02:00,
2013-07-24 08:08:00,66.6,58.8,29.72,South,180,0.0,0.0,76,0.00,,,0.00,pywws,2013-07-24 07:08:00,
2013-07-24 08:13:00,66.6,59.1,29.72,West,270,0.0,0.0,77,0.00,,,0.00,pywws,2013-07-24 07:13:00,
2013-07-24 08:18:00,66.6,59.1,29.72,NE,45,0.7,2.2,77,0.00,,,0.00,pywws,2013-07-24 07:18:00,
2013-07-24 08:23:00,66.2,58.8,29.72,South,180,0.7,1.6,77,0.00,,,0.00,pywws,2013-07-24 07:23:00,
2013-07-24 08:28:00,66.6,59.1,29.72,NW,315,0.0,3.1,77,0.00,,,0.00,pywws,2013-07-24 07:28:00,
2013-07-24 08:33:00,66.6,59.1,29.72,NW,315,1.6,3.1,77,0.00,,,0.00,pywws,2013-07-24 07:33:00,
2013-07-24 08:39:00,66.6,59.5,29.72,East,90,0.0,0.0,78,0.00,,,0.00,pywws,2013-07-24 07:39:00,
2013-07-24 08:44:00,66.6,59.5,29.72,SE,135,0.0,0.7,78,0.00,,,0.00,pywws,2013-07-24 07:44:00,
2013-07-24 08:49:00,66.6,59.5,29.72,South,180,0.7,2.2,78,0.00,,,0.00,pywws,2013-07-24 07:49:00,
2013-07-24 08:54:00,66.6,59.5,29.72,North,0,0.0,1.6,78,0.00,,,0.00,pywws,2013-07-24 07:54:00,
2013-07-24 08:57:00,66.6,59.1,29.72,SW,225,1.6,3.1,77,0.00,,,0.00,pywws,2013-07-24 07:57:00,
2013-07-24 08:59:00,66.6,59.1,29.72,SW,225,1.6,3.1,77,0.00,,,0.00,pywws,2013-07-24 07:59:00,
2013-07-24 09:00:00,66.6,59.5,29.72,West,270,0.7,3.1,78,0.00,,,0.00,pywws,2013-07-24 08:00:00,
2013-07-24 09:03:00,66.6,59.5,29.72,NW,315,0.7,2.2,78,0.00,,,0.00,pywws,2013-07-24 08:03:00,
2013-07-24 09:04:00,66.6,59.1,29.72,SW,225,1.6,3.1,77,0.00,,,0.00,pywws,2013-07-24 08:04:00,
2013-07-24 09:06:00,66.7,59.7,29.72,NE,45,0.0,1.6,78,0.00,,,0.00,pywws,2013-07-24 08:06:00,
2013-07-24 09:09:00,67.1,60.0,29.72,North,0,0.0,2.2,78,0.00,,,0.00,pywws,2013-07-24 08:09:00,
2013-07-24 09:12:00,66.6,59.5,29.72,NW,315,0.7,2.2,78,0.00,,,0.00,pywws,2013-07-24 08:12:00,
2013-07-24 09:15:00,67.6,60.2,29.72,West,270,0.7,2.2,77,0.00,,,0.00,pywws,2013-07-24 08:15:00,
2013-07-24 09:18:00,67.8,60.0,29.72,East,90,1.6,5.4,76,0.00,,,0.00,pywws,2013-07-24 08:18:00,
2013-07-24 09:30:00,67.8,60.0,29.72,East,90,0.0,2.2,76,0.00,,,0.00,pywws,2013-07-24 08:30:00,
2013-07-24 09:33:00,68.5,60.7,29.72,North,0,0.0,0.7,76,0.00,,,0.00,pywws,2013-07-24 08:33:00,
2013-07-24 09:35:00,68.2,60.3,29.72,SE,135,0.0,0.0,76,0.00,,,0.00,pywws,2013-07-24 08:35:00,
2013-07-24 09:36:00,68.5,60.3,29.73,NW,315,1.6,3.8,75,0.00,,,0.00,pywws,2013-07-24 08:36:00,
2013-07-24 09:39:00,68.4,60.1,29.73,East,90,0.7,3.1,75,0.00,,,0.00,pywws,2013-07-24 08:39:00,
2013-07-24 09:40:00,68.2,60.3,29.72,SE,135,0.0,0.0,76,0.00,,,0.00,pywws,2013-07-24 08:40:00,
2013-07-24 09:42:00,68.4,60.1,29.72,SW,225,0.7,3.1,75,0.00,,,0.00,pywws,2013-07-24 08:42:00,
2013-07-24 09:45:00,68.5,60.3,29.73,NW,315,1.6,3.8,75,0.00,,,0.00,pywws,2013-07-24 08:45:00,
2013-07-24 09:57:00,68.0,60.1,29.73,East,90,0.0,1.6,76,0.00,,,0.00,pywws,2013-07-24 08:57:00,
2013-07-24 10:02:00,70.0,60.5,29.73,SW,225,0.7,2.2,72,0.00,,,0.00,pywws,2013-07-24 09:02:00,
2013-07-24 10:08:00,69.3,59.8,29.72,SE,135,0.7,3.1,72,0.00,,,0.00,pywws,2013-07-24 09:08:00,
2013-07-24 10:13:00,69.4,60.4,29.73,West,270,0.7,2.2,73,0.00,,,0.00,pywws,2013-07-24 09:13:00,
2013-07-24 10:18:00,69.8,60.4,29.73,South,180,0.0,1.6,72,0.00,,,0.00,pywws,2013-07-24 09:18:00,
2013-07-24 10:23:00,70.3,60.9,29.73,NE,45,0.7,2.2,72,0.00,,,0.00,pywws,2013-07-24 09:23:00,
2013-07-24 10:28:00,70.3,60.5,29.73,SW,225,1.6,3.1,71,0.00,,,0.00,pywws,2013-07-24 09:28:00,
2013-07-24 10:33:00,70.2,60.3,29.73,NW,315,1.6,3.8,71,0.00,,,0.00,pywws,2013-07-24 09:33:00,
2013-07-24 10:39:00,70.7,60.8,29.72,NW,315,0.0,2.2,71,0.00,,,0.00,pywws,2013-07-24 09:39:00,
2013-07-24 10:44:00,71.4,60.7,29.72,West,270,1.6,4.5,69,0.00,,,0.00,pywws,2013-07-24 09:44:00,
2013-07-24 10:49:00,72.0,60.4,29.72,South,180,0.7,3.1,67,0.00,,,0.00,pywws,2013-07-24 09:49:00,
2013-07-24 10:54:00,72.5,60.5,29.72,NW,315,1.6,5.4,66,0.00,,,0.00,pywws,2013-07-24 09:54:00,
2013-07-24 11:00:00,72.5,60.5,29.73,SW,225,0.7,3.1,66,0.00,,,0.00,pywws,2013-07-24 10:00:00,
2013-07-24 11:05:00,73.2,60.7,29.73,ESE,112,0.7,2.2,65,0.00,,,0.00,pywws,2013-07-24 10:05:00,
2013-07-24 11:10:00,73.9,60.5,29.73,South,180,1.6,4.5,63,0.00,,,0.00,pywws,2013-07-24 10:10:00,
2013-07-24 11:16:00,74.8,61.8,29.73,NE,45,0.0,1.6,64,0.00,,,0.00,pywws,2013-07-24 10:16:00,
2013-07-24 11:21:00,76.5,61.5,29.72,SE,135,1.6,3.8,60,0.00,,,0.00,pywws,2013-07-24 10:21:00,
2013-07-24 11:26:00,77.0,61.6,29.72,West,270,0.7,2.2,59,0.00,,,0.00,pywws,2013-07-24 10:26:00,
2013-07-24 11:31:00,76.5,61.0,29.72,West,270,0.7,3.1,59,0.00,,,0.00,pywws,2013-07-24 10:31:00,
2013-07-24 11:36:00,77.7,61.3,29.72,South,180,1.6,3.8,57,0.00,,,0.00,pywws,2013-07-24 10:36:00,
2013-07-24 11:41:00,77.9,60.9,29.72,SE,135,1.6,3.8,56,0.00,,,0.00,pywws,2013-07-24 10:41:00,
2013-07-24 11:46:00,78.3,60.7,29.72,SE,135,0.7,2.2,55,0.00,,,0.00,pywws,2013-07-24 10:46:00,
2013-07-24 11:52:00,79.0,60.9,29.72,North,0,0.7,3.1,54,0.00,,,0.00,pywws,2013-07-24 10:52:00,
2013-07-24 11:57:00,79.7,61.0,29.72,SE,135,0.7,2.2,53,0.00,,,0.00,pywws,2013-07-24 10:57:00,
2013-07-24 12:02:00,79.5,60.9,29.72,North,0,0.7,2.2,53,0.00,,,0.00,pywws,2013-07-24 11:02:00,
2013-07-24 12:08:00,79.9,60.1,29.72,North,0,2.2,4.5,51,0.00,,,0.00,pywws,2013-07-24 11:08:00,
2013-07-24 12:13:00,79.5,60.3,29.72,SE,135,1.6,5.4,52,0.00,,,0.00,pywws,2013-07-24 11:13:00,
2013-07-24 12:18:00,79.7,59.9,29.72,SE,135,1.6,4.5,51,0.00,,,0.00,pywws,2013-07-24 11:18:00,
2013-07-24 12:23:00,80.8,60.4,29.71,NW,315,0.7,3.1,50,0.00,,,0.00,pywws,2013-07-24 11:23:00,
2013-07-24 12:28:00,81.1,59.6,29.71,SW,225,2.2,5.4,48,0.00,,,0.00,pywws,2013-07-24 11:28:00,
2013-07-24 12:33:00,81.3,60.3,29.71,East,90,1.6,3.1,49,0.00,,,0.00,pywws,2013-07-24 11:33:00,
2013-07-24 12:38:00,80.8,58.6,29.71,West,270,0.7,3.1,47,0.00,,,0.00,pywws,2013-07-24 11:38:00,
2013-07-24 12:44:00,80.2,58.7,29.71,East,90,1.6,3.8,48,0.00,,,0.00,pywws,2013-07-24 11:44:00,
2013-07-24 12:49:00,81.1,59.0,29.71,West,270,0.0,1.6,47,0.00,,,0.00,pywws,2013-07-24 11:49:00,
2013-07-24 12:54:00,82.2,60.0,29.71,East,90,0.7,1.6,47,0.00,,,0.00,pywws,2013-07-24 11:54:00,
2013-07-24 12:59:00,82.9,59.4,29.71,NW,315,0.0,1.6,45,0.00,,,0.00,pywws,2013-07-24 11:59:00,
2013-07-24 13:04:00,82.8,58.0,29.71,NW,315,2.2,5.4,43,0.00,,,0.00,pywws,2013-07-24 12:04:00,
2013-07-24 13:09:00,82.9,57.5,29.71,NE,45,1.6,3.8,42,0.00,,,0.00,pywws,2013-07-24 12:09:00,
2013-07-24 13:14:00,82.4,58.3,29.71,South,180,0.7,3.1,44,0.00,,,0.00,pywws,2013-07-24 12:14:00,
2013-07-24 13:20:00,82.9,57.5,29.70,North,0,5.4,8.3,42,0.00,,,0.00,pywws,2013-07-24 12:20:00,
2013-07-24 13:25:00,82.9,57.5,29.70,ENE,68,1.6,3.1,42,0.00,,,0.00,pywws,2013-07-24 12:25:00,
2013-07-24 13:30:00,83.3,57.8,29.70,SE,135,0.7,3.1,42,0.00,,,0.00,pywws,2013-07-24 12:30:00,
2013-07-24 13:35:00,83.7,56.7,29.70,SW,225,1.6,5.4,40,0.00,,,0.00,pywws,2013-07-24 12:35:00,
2013-07-24 13:40:00,83.7,56.7,29.70,North,0,1.6,3.1,40,0.00,,,0.00,pywws,2013-07-24 12:40:00,
2013-07-24 13:46:00,83.7,56.7,29.70,North,0,1.6,3.1,40,0.00,,,0.00,pywws,2013-07-24 12:46:00,
2013-07-24 13:51:00,84.0,57.1,29.70,NW,315,0.7,3.8,40,0.00,,,0.00,pywws,2013-07-24 12:51:00,
2013-07-24 13:56:00,84.7,56.3,29.70,SE,135,2.2,6.0,38,0.00,,,0.00,pywws,2013-07-24 12:56:00,
2013-07-24 14:01:00,84.7,57.0,29.70,NE,45,0.7,2.2,39,0.00,,,0.00,pywws,2013-07-24 13:01:00,
2013-07-24 14:06:00,85.3,55.3,29.70,NW,315,2.2,5.4,36,0.00,,,0.00,pywws,2013-07-24 13:06:00,
2013-07-24 14:11:00,85.3,55.3,29.70,West,270,0.7,1.6,36,0.00,,,0.00,pywws,2013-07-24 13:11:00,
2013-07-24 14:17:00,85.8,55.0,29.69,WNW,292,2.2,6.0,35,0.00,,,0.00,pywws,2013-07-24 13:17:00,
2013-07-24 14:22:00,86.4,56.2,29.70,SE,135,0.7,2.2,36,0.00,,,0.00,pywws,2013-07-24 13:22:00,
2013-07-24 14:27:00,87.3,56.2,29.69,South,180,1.6,3.8,35,0.00,,,0.00,pywws,2013-07-24 13:27:00,
2013-07-24 14:32:00,85.1,55.1,29.70,North,0,1.6,5.4,36,0.00,,,0.00,pywws,2013-07-24 13:32:00,
2013-07-24 14:37:00,82.4,55.6,29.69,SE,135,0.7,3.1,40,0.00,,,0.00,pywws,2013-07-24 13:37:00,
2013-07-24 14:42:00,82.4,57.0,29.69,NE,45,0.0,2.2,42,0.00,,,0.00,pywws,2013-07-24 13:42:00,
2013-07-24 14:47:00,83.7,56.7,29.69,SE,135,1.6,4.5,40,0.00,,,0.00,pywws,2013-07-24 13:47:00,
2013-07-24 14:52:00,83.7,56.7,29.68,WNW,292,2.2,3.8,40,0.00,,,0.00,pywws,2013-07-24 13:52:00,
2013-07-24 14:58:00,83.1,57.6,29.69,SW,225,3.1,6.9,42,0.00,,,0.00,pywws,2013-07-24 13:58:00,
2013-07-24 15:03:00,84.0,57.8,29.68,East,90,2.2,6.0,41,0.00,,,0.00,pywws,2013-07-24 14:03:00,
2013-07-24 15:08:00,83.1,57.6,29.68,South,180,2.2,5.4,42,0.00,,,0.00,pywws,2013-07-24 14:08:00,
2013-07-24 15:13:00,83.8,57.6,29.69,SE,135,2.2,3.8,41,0.00,,,0.00,pywws,2013-07-24 14:13:00,
2013-07-24 15:18:00,84.7,57.7,29.68,SW,225,3.1,6.0,40,0.00,,,0.00,pywws,2013-07-24 14:18:00,
2013-07-24 15:24:00,84.0,57.8,29.68,West,270,0.0,2.2,41,0.00,,,0.00,pywws,2013-07-24 14:24:00,
2013-07-24 15:29:00,83.1,56.3,29.68,NW,315,0.7,2.2,40,0.00,,,0.00,pywws,2013-07-24 14:29:00,
2013-07-24 15:34:00,83.8,57.6,29.68,SE,135,0.7,3.8,41,0.00,,,0.00,pywws,2013-07-24 14:34:00,
2013-07-24 15:39:00,84.7,57.0,29.68,SW,225,3.1,5.4,39,0.00,,,0.00,pywws,2013-07-24 14:39:00,
2013-07-24 15:44:00,84.7,57.7,29.68,North,0,2.2,4.5,40,0.00,,,0.00,pywws,2013-07-24 14:44:00,
2013-07-24 15:49:00,81.5,57.5,29.68,NE,45,0.7,3.8,44,0.00,,,0.00,pywws,2013-07-24 14:49:00,
2013-07-24 15:54:00,81.5,57.5,29.68,SW,225,0.7,3.1,44,0.00,,,0.00,pywws,2013-07-24 14:54:00,
2013-07-24 15:59:00,81.5,57.5,29.68,SW,225,0.7,3.1,44,0.00,,,0.00,pywws,2013-07-24 14:59:00,
2013-07-24 16:05:00,81.5,58.1,29.68,SW,225,0.7,3.8,45,0.00,,,0.00,pywws,2013-07-24 15:05:00,
2013-07-24 16:10:00,80.1,58.0,29.68,North,0,0.7,2.2,47,0.00,,,0.00,pywws,2013-07-24 15:10:00,
2013-07-24 16:15:00,79.5,58.1,29.68,NW,315,1.6,3.8,48,0.00,,,0.00,pywws,2013-07-24 15:15:00,
2013-07-24 16:20:00,79.3,57.9,29.68,West,270,1.6,3.8,48,0.00,,,0.00,pywws,2013-07-24 15:20:00,
2013-07-24 16:25:00,79.0,58.7,29.68,NW,315,0.7,3.1,50,0.00,,,0.00,pywws,2013-07-24 15:25:00,
2013-07-24 16:30:00,79.2,58.9,29.68,SW,225,2.2,4.5,50,0.00,,,0.00,pywws,2013-07-24 15:30:00,
2013-07-24 16:35:00,79.2,59.5,29.68,South,180,1.6,3.8,51,0.00,,,0.00,pywws,2013-07-24 15:35:00,
2013-07-24 16:40:00,79.7,58.8,29.68,East,90,3.1,5.4,49,0.00,,,0.00,pywws,2013-07-24 15:40:00,
2013-07-24 16:45:00,80.1,59.7,29.68,SW,225,3.1,6.9,50,0.00,,,0.00,pywws,2013-07-24 15:45:00,
2013-07-24 16:50:00,80.8,59.2,29.68,East,90,0.7,2.2,48,0.00,,,0.00,pywws,2013-07-24 15:50:00,
2013-07-24 16:56:00,79.9,59.6,29.68,SSE,158,0.7,2.2,50,0.00,,,0.00,pywws,2013-07-24 15:56:00,
2013-07-24 17:01:00,80.2,59.3,29.68,SW,225,2.2,4.5,49,0.00,,,0.00,pywws,2013-07-24 16:01:00,
2013-07-24 17:06:00,82.0,59.2,29.68,SW,225,3.1,6.9,46,0.00,,,0.00,pywws,2013-07-24 16:06:00,
2013-07-24 17:11:00,82.2,59.3,29.69,South,180,0.0,1.6,46,0.00,,,0.00,pywws,2013-07-24 16:11:00,
2013-07-24 17:17:00,81.3,58.5,29.69,South,180,2.2,4.5,46,0.00,,,0.00,pywws,2013-07-24 16:17:00,
2013-07-24 17:22:00,81.7,59.5,29.68,West,270,2.2,5.4,47,0.00,,,0.00,pywws,2013-07-24 16:22:00,
2013-07-24 17:27:00,82.8,59.8,29.68,West,270,0.0,1.6,46,0.00,,,0.00,pywws,2013-07-24 16:27:00,
2013-07-24 17:32:00,81.9,59.6,29.68,NW,315,0.7,3.1,47,0.00,,,0.00,pywws,2013-07-24 16:32:00,
2013-07-24 17:37:00,83.1,58.9,29.68,NE,45,1.6,3.1,44,0.00,,,0.00,pywws,2013-07-24 16:37:00,
2013-07-24 17:42:00,82.6,58.4,29.68,NW,315,1.6,5.4,44,0.00,,,0.00,pywws,2013-07-24 16:42:00,
2013-07-24 17:47:00,82.9,58.8,29.68,South,180,0.7,3.1,44,0.00,,,0.00,pywws,2013-07-24 16:47:00,
2013-07-24 17:52:00,83.3,59.1,29.67,NW,315,0.7,3.1,44,0.00,,,0.00,pywws,2013-07-24 16:52:00,
2013-07-24 17:58:00,83.7,58.8,29.67,North,0,0.7,3.1,43,0.00,,,0.00,pywws,2013-07-24 16:58:00,
2013-07-24 18:03:00,84.2,59.2,29.67,NE,45,0.7,1.6,43,0.00,,,0.00,pywws,2013-07-24 17:03:00,
2013-07-24 18:08:00,84.4,58.1,29.67,West,270,2.2,3.8,41,0.00,,,0.00,pywws,2013-07-24 17:08:00,
2013-07-24 18:13:00,83.8,58.9,29.67,South,180,1.6,3.1,43,0.00,,,0.00,pywws,2013-07-24 17:13:00,
2013-07-24 18:18:00,81.5,58.7,29.67,South,180,2.2,4.5,46,0.00,,,0.00,pywws,2013-07-24 17:18:00,
2013-07-24 18:23:00,80.6,59.1,29.67,North,0,0.7,3.8,48,0.00,,,0.00,pywws,2013-07-24 17:23:00,
2013-07-24 18:29:00,81.3,59.1,29.67,South,180,0.7,2.2,47,0.00,,,0.00,pywws,2013-07-24 17:29:00,
2013-07-24 18:34:00,81.1,59.0,29.67,NNE,22,3.1,6.9,47,0.00,,,0.00,pywws,2013-07-24 17:34:00,
2013-07-24 18:39:00,79.2,59.5,29.67,SW,225,2.2,5.4,51,0.00,,,0.00,pywws,2013-07-24 17:39:00,
2013-07-24 18:44:00,78.8,59.1,29.67,South,180,0.0,2.2,51,0.00,,,0.00,pywws,2013-07-24 17:44:00,
2013-07-24 18:49:00,77.9,59.4,29.67,WNW,292,0.7,3.1,53,0.00,,,0.00,pywws,2013-07-24 17:49:00,
2013-07-24 18:54:00,77.4,59.4,29.67,East,90,0.7,4.5,54,0.00,,,0.00,pywws,2013-07-24 17:54:00,
2013-07-24 19:00:00,78.4,60.4,29.67,East,90,0.7,3.1,54,0.00,,,0.00,pywws,2013-07-24 18:00:00,
2013-07-24 19:05:00,80.2,60.4,29.67,West,270,1.6,4.5,51,0.00,,,0.00,pywws,2013-07-24 18:05:00,
2013-07-24 19:10:00,81.1,60.1,29.67,North,0,2.2,5.4,49,0.00,,,0.00,pywws,2013-07-24 18:10:00,
2013-07-24 19:15:00,81.1,59.0,29.67,South,180,0.7,3.1,47,0.00,,,0.00,pywws,2013-07-24 18:15:00,
2013-07-24 19:20:00,81.1,59.6,29.67,South,180,0.0,2.2,48,0.00,,,0.00,pywws,2013-07-24 18:20:00,
2013-07-24 19:25:00,80.1,59.2,29.67,West,270,2.2,4.5,49,0.00,,,0.00,pywws,2013-07-24 18:25:00,
2013-07-24 19:30:00,78.8,59.1,29.67,North,0,1.6,3.8,51,0.00,,,0.00,pywws,2013-07-24 18:30:00,
2013-07-24 19:36:00,77.4,59.4,29.67,SSW,202,0.7,2.2,54,0.00,,,0.00,pywws,2013-07-24 18:36:00,
2013-07-24 19:41:00,76.5,59.6,29.67,SE,135,0.7,3.1,56,0.00,,,0.00,pywws,2013-07-24 18:41:00,
2013-07-24 19:46:00,75.7,59.4,29.67,NW,315,1.6,4.5,57,0.00,,,0.00,pywws,2013-07-24 18:46:00,
2013-07-24 19:52:00,75.6,59.7,29.67,SE,135,2.2,4.5,58,0.00,,,0.00,pywws,2013-07-24 18:52:00,
2013-07-24 19:57:00,75.6,60.2,29.67,WNW,292,0.7,3.8,59,0.00,,,0.00,pywws,2013-07-24 18:57:00,
2013-07-24 20:02:00,75.6,60.2,29.67,SE,135,1.6,3.8,59,0.00,,,0.00,pywws,2013-07-24 19:02:00,
2013-07-24 20:08:00,74.7,59.8,29.67,WSW,248,1.6,5.4,60,0.00,,,0.00,pywws,2013-07-24 19:08:00,
2013-07-24 20:13:00,74.7,59.8,29.68,SSE,158,1.6,3.1,60,0.00,,,0.00,pywws,2013-07-24 19:13:00,
2013-07-24 20:18:00,74.3,60.0,29.68,South,180,0.7,2.2,61,0.00,,,0.00,pywws,2013-07-24 19:18:00,
2013-07-24 20:23:00,73.9,59.6,29.67,South,180,1.6,3.1,61,0.00,,,0.00,pywws,2013-07-24 19:23:00,
2013-07-24 20:29:00,73.6,59.3,29.67,NW,315,0.7,3.1,61,0.00,,,0.00,pywws,2013-07-24 19:29:00,
2013-07-24 20:34:00,73.2,58.9,29.68,NNW,338,1.6,3.8,61,0.00,,,0.00,pywws,2013-07-24 19:34:00,
2013-07-24 20:39:00,72.9,59.1,29.68,South,180,0.7,3.8,62,0.00,,,0.00,pywws,2013-07-24 19:39:00,
2013-07-24 20:44:00,72.5,59.2,29.68,NW,315,0.7,3.8,63,0.00,,,0.00,pywws,2013-07-24 19:44:00,
2013-07-24 20:49:00,72.3,59.0,29.69,South,180,0.7,2.2,63,0.00,,,0.00,pywws,2013-07-24 19:49:00,
2013-07-24 20:55:00,72.0,59.1,29.69,SE,135,0.0,1.6,64,0.00,,,0.00,pywws,2013-07-24 19:55:00,
2013-07-24 21:00:00,71.8,58.9,29.69,SE,135,0.0,1.6,64,0.00,,,0.00,pywws,2013-07-24 20:00:00,
2013-07-24 21:05:00,71.8,58.9,29.69,SE,135,0.0,1.6,64,0.00,,,0.00,pywws,2013-07-24 20:05:00,
2013-07-24 21:10:00,71.1,58.7,29.69,South,180,0.0,0.7,65,0.00,,,0.00,pywws,2013-07-24 20:10:00,
2013-07-24 21:15:00,70.9,58.9,29.69,West,270,0.0,1.6,66,0.00,,,0.00,pywws,2013-07-24 20:15:00,
2013-07-24 21:20:00,70.7,59.2,29.69,South,180,0.0,0.0,67,0.00,,,0.00,pywws,2013-07-24 20:20:00,
2013-07-24 21:26:00,70.3,60.1,29.70,WSW,248,1.6,4.5,70,0.00,,,0.00,pywws,2013-07-24 20:26:00,
2013-07-24 21:31:00,70.2,59.9,29.70,SE,135,0.0,1.6,70,0.00,,,0.00,pywws,2013-07-24 20:31:00,
2013-07-24 21:36:00,70.0,60.1,29.70,SW,225,0.0,3.1,71,0.00,,,0.00,pywws,2013-07-24 20:36:00,
2013-07-24 21:41:00,69.8,60.0,29.70,South,180,0.0,1.6,71,0.00,,,0.00,pywws,2013-07-24 20:41:00,
2013-07-24 21:46:00,69.6,60.2,29.70,SW,225,0.7,2.2,72,0.00,,,0.00,pywws,2013-07-24 20:46:00,
2013-07-24 21:51:00,69.6,60.2,29.70,South,180,0.0,1.6,72,0.00,,,0.00,pywws,2013-07-24 20:51:00,
2013-07-24 21:56:00,69.4,60.4,29.70,SW,225,0.0,0.7,73,0.00,,,0.00,pywws,2013-07-24 20:56:00,
2013-07-24 22:01:00,69.3,60.2,29.70,NNW,338,0.0,0.0,73,0.00,,,0.00,pywws,2013-07-24 21:01:00,
2013-07-24 22:06:00,68.9,59.9,29.70,NNE,22,0.0,1.6,73,0.00,,,0.00,pywws,2013-07-24 21:06:00,
2013-07-24 22:12:00,68.5,59.9,29.70,SE,135,0.0,1.6,74,0.00,,,0.00,pywws,2013-07-24 21:12:00,
2013-07-24 22:17:00,68.5,59.9,29.70,SE,135,0.0,1.6,74,0.00,,,0.00,pywws,2013-07-24 21:17:00,
2013-07-24 22:22:00,68.0,59.8,29.70,SE,135,0.0,0.0,75,0.00,,,0.00,pywws,2013-07-24 21:22:00,
2013-07-24 22:27:00,67.6,59.8,29.70,WNW,292,0.0,0.0,76,0.00,,,0.00,pywws,2013-07-24 21:27:00,
2013-07-24 22:32:00,67.6,59.8,29.70,NW,315,0.0,0.0,76,0.00,,,0.00,pywws,2013-07-24 21:32:00,
2013-07-24 22:37:00,67.5,60.0,29.70,South,180,0.0,0.0,77,0.00,,,0.00,pywws,2013-07-24 21:37:00,
2013-07-24 22:42:00,67.1,59.6,29.70,SW,225,0.0,0.0,77,0.00,,,0.00,pywws,2013-07-24 21:42:00,
2013-07-24 22:48:00,66.9,59.8,29.70,NW,315,0.0,0.0,78,0.00,,,0.00,pywws,2013-07-24 21:48:00,
2013-07-24 22:53:00,66.7,59.7,29.70,NW,315,0.0,0.0,78,0.00,,,0.00,pywws,2013-07-24 21:53:00,
2013-07-24 22:58:00,66.4,59.7,29.70,SW,225,0.0,0.7,79,0.00,,,0.00,pywws,2013-07-24 21:58:00,
2013-07-24 23:03:00,66.4,59.7,29.70,North,0,0.0,0.0,79,0.00,,,0.00,pywws,2013-07-24 22:03:00,
2013-07-24 23:08:00,66.4,59.7,29.70,North,0,0.0,0.0,79,0.00,,,0.00,pywws,2013-07-24 22:08:00,
2013-07-24 23:13:00,66.2,59.8,29.70,NW,315,0.0,0.7,80,0.00,,,0.00,pywws,2013-07-24 22:13:00,
2013-07-24 23:18:00,66.0,59.7,29.70,East,90,0.0,1.6,80,0.00,,,0.00,pywws,2013-07-24 22:18:00,
2013-07-24 23:24:00,66.0,59.7,29.70,West,270,0.0,1.6,80,0.00,,,0.00,pywws,2013-07-24 22:24:00,
2013-07-24 23:29:00,65.8,59.8,29.70,SW,225,0.7,3.1,81,0.00,,,0.00,pywws,2013-07-24 22:29:00,
2013-07-24 23:34:00,65.7,59.7,29.70,NW,315,0.0,2.2,81,0.00,,,0.00,pywws,2013-07-24 22:34:00,
2013-07-24 23:39:00,65.7,60.0,29.70,South,180,0.0,1.6,82,0.00,,,0.00,pywws,2013-07-24 22:39:00,
2013-07-24 23:44:00,65.5,60.2,29.70,SW,225,0.0,2.2,83,0.00,,,0.00,pywws,2013-07-24 22:44:00,
2013-07-24 23:49:00,65.5,59.8,29.70,SSE,158,0.0,1.6,82,0.00,,,0.00,pywws,2013-07-24 22:49:00,
2013-07-24 23:54:00,65.3,60.0,29.70,North,0,0.0,2.2,83,0.00,,,0.00,pywws,2013-07-24 22:54:00,